Weather History for Camp Pendleton, CA

Change the Weather History Date:

Wednesday, January 2, 2013

  Actual Average Record
Temperature  
Mean Temperature 52 °F -  
Max Temperature 68 °F 65 °F - (-1)
Min Temperature 35 °F 38 °F - (-1)
Degree Days  
Heating Degree Days 14    
Growing Degree Days 2 (Base 50)    
Moisture  
Dew Point 21 °F    
Average Humidity 36    
Maximum Humidity 72    
Minimum Humidity 12    
Precipitation  
Precipitation 0.00 in - - ()
Sea Level Pressure  
Sea Level Pressure 30.07 in    
Wind  
Wind Speed 5 mph (NE)    
Max Wind Speed 15 mph    
Max Gust Speed 24 mph    
Visibility 10 miles    
Events      
Averages and records for this station are not official NWS values.
T = Trace of Precipitation, MM = Missing Value Source: NWS Daily Summary

Daily Weather History Graph

Daily Weather History Graph

Search for Another Location

Airport:

Trip Planner

Search our weather history database for the weather conditions in past years. The results will help you decide how hot, cold, wet, or windy it might be!

Date:

Astronomy

Jan. 02, 2013 Rise Set
Actual Time 6:53 AM PST 4:54 PM PST
Civil Twilight 6:26 AM PST 5:21 PM PST
Nautical Twilight 5:55 AM PST 5:52 PM PST
Astronomical Twilight 5:25 AM PST 6:22 PM PST
Moon 10:13 PM PST (1/2) 9:54 AM PST (1/2)
Length of Visible Light 10h 55m
Length of Day
10h 00m
Waning Gibbous, 74% of the Moon is Illuminated
Jan 2
Waning Gibbous
Jan 4
Last Quarter
Jan 11
New
Jan 18
First Quarter
Jan 26
Full

Hourly Weather History & Observations

Time (PST) Temp. Windchill Dew Point Humidity Pressure Visibility Wind Dir Wind Speed Gust Speed Precip Events Conditions
12:54 AM 35.1 °F - 27.0 °F 72% 30.12 in 10.0 mi Calm Calm - N/A   Clear
1:54 AM 35.1 °F 32.2 °F 25.0 °F 67% 30.11 in 10.0 mi North 3.5 mph - N/A   Clear
2:54 AM 52.0 °F - 19.0 °F 27% 30.09 in 10.0 mi ENE 10.4 mph - N/A   Clear
3:54 AM 51.1 °F - 18.0 °F 27% 30.08 in 10.0 mi NE 9.2 mph - N/A   Clear
4:54 AM 52.0 °F - 17.1 °F 25% 30.07 in 10.0 mi ENE 9.2 mph - N/A   Clear
5:54 AM 53.1 °F - 16.0 °F 23% 30.06 in 10.0 mi NE 12.7 mph 20.7 mph N/A   Clear
6:54 AM 53.1 °F - 16.0 °F 23% 30.06 in 10.0 mi ENE 9.2 mph - N/A   Clear
7:54 AM 55.0 °F - 17.1 °F 23% 30.07 in 10.0 mi ENE 8.1 mph - N/A   Clear
8:54 AM 60.1 °F - 16.0 °F 18% 30.09 in 10.0 mi NE 13.8 mph 24.2 mph N/A   Clear
9:54 AM 63.0 °F - 14.0 °F 15% 30.09 in 10.0 mi NNE 15.0 mph 20.7 mph N/A   Clear
10:54 AM 66.9 °F - 12.0 °F 12% 30.08 in 10.0 mi NNE 8.1 mph - N/A   Clear
11:54 AM 68.0 °F - 15.1 °F 13% 30.05 in 10.0 mi Calm Calm - N/A   Clear
12:54 PM 66.0 °F - 18.0 °F 16% 30.04 in 10.0 mi West 10.4 mph - N/A   Clear
1:54 PM 66.0 °F - 19.9 °F 17% 30.03 in 10.0 mi WSW 10.4 mph - N/A   Clear
2:54 PM 64.0 °F - 25.0 °F 23% 30.03 in 10.0 mi SSW 6.9 mph - N/A   Clear
3:54 PM 63.0 °F - 23.0 °F 22% 30.03 in 10.0 mi SSW 3.5 mph - N/A   Partly Cloudy
4:54 PM 61.0 °F - 18.0 °F 19% 30.03 in 10.0 mi Calm Calm - N/A   Partly Cloudy
5:54 PM 51.1 °F - 19.9 °F 29% 30.04 in 10.0 mi Calm Calm - N/A   Partly Cloudy
6:54 PM 45.0 °F - 28.0 °F 52% 30.06 in 10.0 mi Calm Calm - N/A   Clear
7:54 PM 42.1 °F - 28.0 °F 58% 30.06 in 10.0 mi Calm Calm - N/A   Clear
8:54 PM 39.0 °F - 28.0 °F 65% 30.07 in 10.0 mi Calm Calm - N/A   Clear
9:54 PM 37.0 °F - 28.0 °F 70% 30.08 in 10.0 mi Calm Calm - N/A   Clear
10:54 PM 35.1 °F - 27.0 °F 72% 30.07 in 10.0 mi Calm Calm - N/A   Clear
11:54 PM 35.1 °F - 27.0 °F 72% 30.08 in 10.0 mi Calm Calm - N/A   Clear